RA70112 UGSS-UGSS

Flight info

Callsign RA70112
Flight time 0h 3m
Altitude 8000
Route DCT
Aircraft DA62/L-SDFGRY/C

Departure

Time 2026-04-18 15:54
Airport Vladislav Ardzinba Sukhum International Airport (UGSS)

Arrival

Time 2026-04-18 15:58
Airport Vladislav Ardzinba Sukhum International Airport (UGSS)
Time Latitude Longitude Altitude Speed Heading
2026-04-18 15:45 42.86588 41.11846 34 ft 0 kts 22°
2026-04-18 15:46 42.86587 41.11846 34 ft 0 kts 22°
2026-04-18 15:51 42.86592 41.11848 0 ft 4 kts 24°
2026-04-18 15:51 42.86636 41.11793 34 ft 15 kts 291°
2026-04-18 15:52 42.86691 41.11605 33 ft 22 kts 296°
2026-04-18 15:52 42.86720 41.11437 32 ft 18 kts 239°
2026-04-18 15:52 42.86659 41.11390 32 ft 2 kts 174°
2026-04-18 15:52 42.86577 41.11437 33 ft 18 kts 153°
2026-04-18 15:53 42.86454 41.11525 35 ft 22 kts 150°
2026-04-18 15:53 42.86293 41.11800 38 ft 64 kts 116°
2026-04-18 15:53 42.85981 41.12435 115 ft 94 kts 129°
2026-04-18 15:53 42.85561 41.13209 455 ft 93 kts 130°
2026-04-18 15:54 42.85049 41.13987 529 ft 125 kts 138°
2026-04-18 15:54 42.84447 41.14813 877 ft 126 kts 135°
2026-04-18 15:54 42.83834 41.15743 1014 ft 137 kts 132°
2026-04-18 15:54 42.83176 41.16761 1006 ft 150 kts 136°
2026-04-18 15:55 42.82675 41.17423 1033 ft 152 kts 137°
2026-04-18 15:55 42.81945 41.18436 1097 ft 154 kts 136°
2026-04-18 15:55 42.81153 41.19474 1078 ft 158 kts 139°
2026-04-18 15:55 42.80490 41.20728 704 ft 152 kts 114°
2026-04-18 15:56 42.80259 41.21925 154 ft 117 kts 106°
2026-04-18 15:56 42.79951 41.23293 130 ft 129 kts 112°
2026-04-18 15:56 42.79563 41.24503 205 ft 148 kts 117°
2026-04-18 15:56 42.79376 41.25440 251 ft 157 kts 102°
2026-04-18 15:57 42.79197 41.26933 372 ft 159 kts 100°
2026-04-18 15:57 42.78955 41.28371 274 ft 155 kts 116°
2026-04-18 15:57 42.78457 41.29417 124 ft 107 kts 130°
2026-04-18 15:57 42.78035 41.30075 9 ft 68 kts 121°
2026-04-18 15:58 42.77948 41.30222 14 ft 0 kts 134°
2026-04-18 15:59 42.77926 41.30256 18 ft 24 kts 131°
2026-04-18 15:59 42.77667 41.30611 19 ft 74 kts 146°
2026-04-18 15:59 42.77347 41.31279 143 ft 101 kts 91°
2026-04-18 15:59 42.77777 41.32178 222 ft 128 kts 45°
2026-04-18 16:00 42.78439 41.33080 476 ft 138 kts 47°
2026-04-18 16:00 42.79115 41.34022 817 ft 139 kts 49°
2026-04-18 16:00 42.79771 41.35043 1041 ft 149 kts 51°
2026-04-18 16:00 42.80502 41.36122 1112 ft 164 kts 39°
2026-04-18 16:01 42.81468 41.37035 1108 ft 174 kts 48°
2026-04-18 16:01 42.82264 41.38300 1109 ft 178 kts 53°
2026-04-18 16:01 42.83004 41.39665 1113 ft 178 kts 55°
2026-04-18 16:01 42.83719 41.41009 1112 ft 172 kts 56°
2026-04-18 16:02 42.84414 41.42317 1113 ft 168 kts 55°
2026-04-18 16:02 42.85098 41.43608 1110 ft 168 kts 55°
2026-04-18 16:02 42.85782 41.44900 1113 ft 168 kts 55°
2026-04-18 16:02 42.86470 41.46184 1114 ft 168 kts 55°
2026-04-18 16:03 42.87159 41.47474 1117 ft 168 kts 55°
2026-04-18 16:03 42.87844 41.48766 1117 ft 168 kts 55°
2026-04-18 16:03 42.88517 41.50036 1120 ft 167 kts 55°
2026-04-18 16:03 42.89177 41.51258 1470 ft 155 kts 54°
2026-04-18 16:04 42.89849 41.52408 1689 ft 157 kts 50°
2026-04-18 16:04 42.90618 41.53527 1772 ft 166 kts 45°
2026-04-18 16:04 42.91431 41.54578 2073 ft 158 kts 43°
2026-04-18 16:04 42.92249 41.55599 2257 ft 160 kts 42°
2026-04-18 16:05 42.93179 41.56398 2513 ft 157 kts 20°
2026-04-18 16:05 42.94242 41.56671 2776 ft 156 kts
2026-04-18 16:05 42.95342 41.56717 2929 ft 161 kts
2026-04-18 16:05 42.96457 41.56796 3188 ft 156 kts
2026-04-18 16:06 42.97531 41.56938 3480 ft 151 kts
2026-04-18 16:06 42.98528 41.57101 3958 ft 136 kts
2026-04-18 16:06 42.99362 41.56852 4498 ft 122 kts 339°
2026-04-18 16:06 43.00218 41.56399 4631 ft 138 kts 350°
2026-04-18 16:07 43.01170 41.56515 4891 ft 139 kts 13°
2026-04-18 16:07 43.02140 41.56850 5101 ft 149 kts 22°
2026-04-18 16:07 43.03167 41.57485 5022 ft 168 kts 25°
2026-04-18 16:07 43.04199 41.58163 5327 ft 161 kts 33°
2026-04-18 16:08 43.05027 41.59277 5273 ft 176 kts 59°
2026-04-18 16:08 43.05592 41.60765 5254 ft 182 kts 50°
2026-04-18 16:08 43.06600 41.61812 5261 ft 184 kts 33°
2026-04-18 16:08 43.07491 41.63074 5269 ft 186 kts 51°
2026-04-18 16:09 43.08303 41.64460 5277 ft 187 kts 51°
2026-04-18 16:09 43.09113 41.65853 5278 ft 187 kts 51°
2026-04-18 16:09 43.09929 41.67242 5325 ft 184 kts 48°
2026-04-18 16:09 43.10692 41.68459 5612 ft 159 kts 19°
2026-04-18 16:10 43.11492 41.67562 5300 ft 188 kts 286°
2026-04-18 16:10 43.12045 41.66014 5436 ft 182 kts 312°
2026-04-18 16:10 43.13092 41.64940 5223 ft 196 kts 330°
2026-04-18 16:10 43.14258 41.64032 5370 ft 182 kts 322°
2026-04-18 16:11 43.15112 41.62809 5587 ft 176 kts 309°
2026-04-18 16:11 43.15836 41.61455 5821 ft 168 kts 302°
2026-04-18 16:11 43.16373 41.60068 6105 ft 165 kts 295°
2026-04-18 16:11 43.16804 41.58606 6345 ft 164 kts 288°
2026-04-18 16:12 43.16983 41.57090 6651 ft 161 kts 270°
2026-04-18 16:12 43.16848 41.55564 6892 ft 161 kts 258°
2026-04-18 16:12 43.16516 41.54129 7146 ft 160 kts 242°
2026-04-18 16:12 43.15913 41.52844 7360 ft 160 kts 231°
2026-04-18 16:13 43.15750 41.51476 7597 ft 171 kts 297°
2026-04-18 16:13 43.16154 41.49978 7856 ft 167 kts 268°
2026-04-18 16:13 43.15633 41.48552 7794 ft 181 kts 226°
2026-04-18 16:13 43.14708 41.47356 7807 ft 184 kts 217°
2026-04-18 16:14 43.13717 41.46156 7760 ft 191 kts 222°
2026-04-18 16:14 43.12989 41.44639 7784 ft 197 kts 252°
2026-04-18 16:14 43.12907 41.42752 7783 ft 199 kts 259°
2026-04-18 16:14 43.12291 41.41140 7788 ft 192 kts 223°
2026-04-18 16:15 43.10308 41.38717 7792 ft 189 kts 218°
2026-04-18 16:15 43.09305 41.37544 7797 ft 191 kts 218°
2026-04-18 16:15 43.08286 41.36345 7786 ft 194 kts 218°
2026-04-18 16:16 43.07253 41.35143 7782 ft 195 kts 218°
2026-04-18 16:16 43.06222 41.33942 7781 ft 195 kts 218°
2026-04-18 16:16 43.05204 41.32754 7781 ft 194 kts 218°
2026-04-18 16:16 43.04180 41.31555 7772 ft 193 kts 218°
2026-04-18 16:17 43.03160 41.30364 7770 ft 193 kts 218°
2026-04-18 16:17 43.02139 41.29171 7768 ft 193 kts 218°
2026-04-18 16:17 43.01120 41.27984 7768 ft 192 kts 218°
2026-04-18 16:17 43.00107 41.26802 7637 ft 194 kts 215°
2026-04-18 16:18 42.98873 41.25787 5464 ft 234 kts 195°
2026-04-18 16:18 42.97403 41.25282 5453 ft 207 kts 191°
2026-04-18 16:18 42.96027 41.24860 5092 ft 202 kts 190°
2026-04-18 16:18 42.94690 41.24480 4924 ft 195 kts 189°
2026-04-18 16:19 42.93378 41.24148 4928 ft 187 kts 187°
2026-04-18 16:19 42.92087 41.23661 4691 ft 196 kts 199°
2026-04-18 16:19 42.90850 41.22875 4546 ft 197 kts 204°
2026-04-18 16:19 42.89636 41.21942 4228 ft 204 kts 208°
2026-04-18 16:20 42.88434 41.20941 2201 ft 231 kts 209°
2026-04-18 16:20 42.87142 41.19880 1863 ft 208 kts 211°
2026-04-18 16:20 42.85972 41.18762 1492 ft 206 kts 213°
2026-04-18 16:20 42.85036 41.17740 1149 ft 135 kts 230°
2026-04-18 16:21 42.84693 41.16745 707 ft 108 kts 251°
2026-04-18 16:21 42.84614 41.15810 353 ft 93 kts 275°
2026-04-18 16:21 42.84795 41.15006 131 ft 84 kts 297°
2026-04-18 16:21 42.85095 41.14374 47 ft 73 kts 300°
2026-04-18 16:22 42.85275 41.13959 45 ft 52 kts 297°
2026-04-18 16:22 42.85436 41.13670 42 ft 38 kts 295°
2026-04-18 16:22 42.85616 41.13288 36 ft 42 kts 279°
2026-04-18 16:22 42.85774 41.12958 34 ft 20 kts 38°
2026-04-18 16:23 42.85783 41.13227 34 ft 49 kts 65°
2026-04-18 16:23 42.85958 41.13193 33 ft 45 kts 308°
2026-04-18 16:23 42.86542 41.12344 22 ft 32 kts 308°
2026-04-18 16:24 42.86542 41.12084 21 ft 26 kts 285°
2026-04-18 16:24 42.86517 41.11983 20 ft 0 kts 195°